METEOR 2-5 DEB, 29293

Orbit data source: Space-Track

METEOR 2-5 DEB, 29293 is space debris in LEO originally from a launch on Wed, 31 Oct 1979 UTC launched from the Plesetsk Missile And Space Complex (PKMTR). Debris objects in space refer to the collection of defunct objects orbiting the Earth. Examples of debris include non-operational satellites, rocket bodies, and fragments generated from explosions, collisions, or faulty payload assembly.

Loading next visibility...
Identifier
29293, 1979-095S
Orbit
LEO
Country
Flag of CISCIS
Related business
Manufacturer
Unknown
Mission
Spacecraft
Bus & Motor
Unknown
Mass
Unknown
Launch date (UTC)
1979-10-31 (46 years ago)
Launch vehicle
Unknown
Launch site
Plesetsk Missile And Space Complex (PKMTR)
Object type
Payload
Rocket body
Debris
Shape & HBR
Unknown shape, 0.1 m
Radar Cross Section
Small (<0.1 m²)

Expand to show TLE details & history
Last TLE update: 21 hours ago

TLE from 21 hours ago
0 METEOR 2-5 DEB
1 29293U 79095S   25293.39398055  .00016727  00000-0  48178-2 0  9991
2 29293  81.1977 335.2759 0008422 193.1657 166.9314 14.44626661 80729
Epoch: 2025-10-20T09:27Z
TLE epoch observation values (Epoch: 2025-10-20T09:27:19.919Z)
Latitude
-0.00006°
Longitude
164.34597°
Altitude
752.042 km
Speed
7.475 km/s
True Right ascension
22h 21m 06s
True Declination
0° 00' 00"
Sunlit
Object was in full shadow at epoch
Visualization orbit readout
Latitude
Unknown
Longitude
Unknown
Altitude
Unknown
Speed
Unknown
Apparent Right ascension
Unknown
Apparent Declination
Unknown
Sunlit
N/A
Visualization observer readout
Local Sidereal Time
01:12:24
Azimuth
Unknown
Elevation
Unknown
Doppler factor
Unknown
Orbital elements
Apogee altitude
746.378 km
Perigee altitude
734.388 km
Semi-major axis
7,118.52 km
Eccentricity
0.00084
Inclination
81.1977°
RAAN
335.2759°
Arg. of periapsis
193.1657°
True anomaly
166.9532°
Mean anomaly
166.9314°
Eccentric anomaly
166.9423°
Mean motion
3.61375 °/min
Orbital period
99.62 mins
BSTAR
0.0048178
Loading maneuver chart data...
Computing Atmospheric mass density...

Documentation

Showing up to 5 results
|